Flag for USA

Past Weather in 40°37'59"N, 89°23'54"W, USA — Yesterday and Last 2 Weeks

Currently: 22 °F. Light snow. Mostly cloudy. (Weather station: Greater Peoria Regional Airport, USA). See more current weather

Past Weather in 40°37'59"N, 89°23'54"W — Graph

°F

40°37'59"N, 89°23'54"W Temperature Yesterday

Maximum temperature yesterday: 31 °F (at 12:14 am)
Minimum temperature yesterday: 20 °F (at 11:54 pm)
Average temperature yesterday: 28 °F

High & Low Weather Summary for the Past Weeks

 TemperatureHumidityPressure
High48 °F (Jan 21, 12:54 pm)93% (Jan 15, 11:54 pm)30.44 "Hg (Jan 15, 11:54 pm)
Low9 °F (Jan 23, 3:54 am)30% (Jan 22, 2:54 pm)29.38 "Hg (Jan 15, 5:12 am)
Average30 °F75%29.93 "Hg
* Reported Jan 12 12:54 pm — Jan 27 12:54 pm, 40°37'59"N, 89°23'54"W. Weather by CustomWeather, © 2021

Note: Actual official high and low records may vary slightly from our data, if they occured in-between our weather recording intervals... More about our weather records

40°37'59"N, 89°23'54"W Weather History for the Previous 24 Hours

Scroll right to see more
 ConditionsComfort  
Time TempWeatherWind HumidityBarometerVisibility
12:54 pm
Wed, Jan 27
23 °FOvercast.6 mph74%30.40 "Hg10 mi
12:07 pm24 °FMostly cloudy.3 mph75%30.38 "Hg10 mi
11:54 am24 °FMore clouds than sun.7 mph75%30.40 "Hg10 mi
10:54 am23 °FOvercast.8 mph74%30.38 "Hg10 mi
10:41 am23 °FMore clouds than sun.8 mph74%30.35 "Hg10 mi
10:07 am22 °FMostly cloudy.10 mph78%30.33 "Hg10 mi
8:54 am21 °FOvercast.7 mph74%30.35 "Hg10 mi
7:54 am20 °FSunny.6 mph74%30.35 "Hg10 mi
6:54 am19 °FPassing clouds.3 mph77%30.32 "Hg10 mi
5:54 am20 °FClear.6 mph74%30.29 "Hg10 mi
4:54 am19 °FClear.6 mph77%30.30 "Hg10 mi
3:54 am20 °FClear.8 mph78%30.28 "Hg10 mi
2:54 am20 °FClear.9 mph82%30.26 "Hg10 mi
1:54 am19 °FClear.5 mph85%30.30 "Hg10 mi
12:54 am20 °FPassing clouds.6 mph82%30.29 "Hg10 mi
11:54 pm
Tue, Jan 26
20 °FClear.5 mph82%30.28 "Hg10 mi
10:54 pm21 °FClear.7 mph81%30.25 "Hg10 mi
9:54 pm21 °FClear.6 mph81%30.22 "Hg10 mi
8:54 pm22 °FPassing clouds.3 mph82%30.20 "Hg10 mi
7:54 pm23 °FClear.5 mph81%30.17 "Hg10 mi
6:54 pm24 °FClear.7 mph81%30.15 "Hg10 mi
5:54 pm25 °FPassing clouds.7 mph78%30.14 "Hg10 mi
5:16 pm26 °FMostly cloudy.7 mph77%30.11 "Hg10 mi
4:54 pm26 °FOvercast.7 mph77%30.12 "Hg10 mi
4:03 pm27 °FOvercast.6 mph78%30.07 "Hg10 mi
3:54 pm27 °FMostly cloudy.9 mph78%30.09 "Hg10 mi
2:54 pm27 °FMostly cloudy.8 mph81%30.05 "Hg10 mi
2:32 pm27 °FMostly cloudy.7 mph81%30.01 "Hg10 mi
2:07 pm27 °FMostly cloudy.12 mph81%29.99 "Hg10 mi
Weather by CustomWeather, © 2021

See weather overview